THA613 ZPPP-VTBS

Flight info

Callsign THA613
Flight time 1h 49m
Altitude 38000
Route ELASU1Y ELASU A581 SAGAG/N0483F380 B218 LPB B346 NOBER NORTA1C
Aircraft B772/H-SDE2E3FGHIJ5LORVWXY/LB1D1

Departure

Time 2026-05-01 07:44
Airport Kunming Changshui International Airport (ZPPP)

Arrival

Time 2026-05-01 09:33
Airport Suvarnabhumi Airport (VTBS)
Time Latitude Longitude Altitude Speed Heading
2026-05-01 07:23 25.09736 102.93223 6900 ft 0 kts 264°
2026-05-01 07:30 25.09736 102.93224 6900 ft 1 kts 264°
2026-05-01 07:30 25.09739 102.93250 6901 ft 4 kts 264°
2026-05-01 07:30 25.09742 102.93280 6900 ft 4 kts 264°
2026-05-01 07:30 25.09745 102.93304 6900 ft 4 kts 248°
2026-05-01 07:31 25.09759 102.93324 6900 ft 4 kts 190°
2026-05-01 07:31 25.09806 102.93284 6900 ft 0 kts 129°
2026-05-01 07:36 25.09805 102.93285 6900 ft 2 kts 129°
2026-05-01 07:36 25.09790 102.93305 6901 ft 6 kts 129°
2026-05-01 07:36 25.09758 102.93353 6900 ft 9 kts 114°
2026-05-01 07:36 25.09786 102.93415 6900 ft 11 kts 41°
2026-05-01 07:37 25.09968 102.93573 6899 ft 22 kts 38°
2026-05-01 07:37 25.10087 102.93677 6899 ft 22 kts 38°
2026-05-01 07:37 25.10206 102.93781 6898 ft 22 kts 38°
2026-05-01 07:38 25.10325 102.93886 6899 ft 22 kts 38°
2026-05-01 07:38 25.10444 102.93989 6898 ft 22 kts 38°
2026-05-01 07:38 25.10681 102.94198 6897 ft 22 kts 39°
2026-05-01 07:39 25.10798 102.94301 6896 ft 21 kts 37°
2026-05-01 07:39 25.10915 102.94398 6896 ft 21 kts 38°
2026-05-01 07:39 25.11138 102.94592 6895 ft 19 kts 39°
2026-05-01 07:40 25.11240 102.94683 6895 ft 19 kts 38°
2026-05-01 07:40 25.11342 102.94772 6895 ft 19 kts 38°
2026-05-01 07:40 25.11445 102.94861 6894 ft 19 kts 38°
2026-05-01 07:40 25.11548 102.94950 6894 ft 19 kts 38°
2026-05-01 07:41 25.11651 102.95038 6893 ft 19 kts 38°
2026-05-01 07:41 25.11751 102.95127 6893 ft 19 kts 38°
2026-05-01 07:41 25.11957 102.95305 6892 ft 19 kts 38°
2026-05-01 07:42 25.12059 102.95394 6892 ft 19 kts 38°
2026-05-01 07:42 25.12162 102.95483 6892 ft 19 kts 38°
2026-05-01 07:42 25.12261 102.95569 6892 ft 14 kts 38°
2026-05-01 07:42 25.12279 102.95643 6892 ft 11 kts 118°
2026-05-01 07:43 25.12229 102.95710 6892 ft 11 kts 130°
2026-05-01 07:43 25.12180 102.95777 6894 ft 11 kts 129°
2026-05-01 07:43 25.12051 102.95754 6893 ft 12 kts 217°
2026-05-01 07:44 25.11272 102.95074 6895 ft 132 kts 218°
2026-05-01 07:44 25.09398 102.93454 7625 ft 185 kts 219°
2026-05-01 07:45 25.08566 102.92492 8521 ft 169 kts 228°
2026-05-01 07:45 25.07643 102.91641 8871 ft 184 kts 219°
2026-05-01 07:45 25.06542 102.90755 9033 ft 205 kts 219°
2026-05-01 07:45 25.05342 102.89775 9153 ft 230 kts 218°
2026-05-01 07:46 25.04015 102.88684 9377 ft 250 kts 220°
2026-05-01 07:46 25.02590 102.87484 9836 ft 264 kts 220°
2026-05-01 07:46 24.99542 102.84875 10485 ft 300 kts 220°
2026-05-01 07:47 24.97833 102.83388 10761 ft 323 kts 220°
2026-05-01 07:47 24.96180 102.81703 11224 ft 324 kts 229°
2026-05-01 07:47 24.94505 102.80002 11701 ft 335 kts 219°
2026-05-01 07:47 24.92619 102.78497 12525 ft 334 kts 217°
2026-05-01 07:48 24.89000 102.75135 14110 ft 347 kts 226°
2026-05-01 07:48 24.87268 102.73254 14963 ft 351 kts 227°
2026-05-01 07:48 24.85516 102.71326 15822 ft 358 kts 227°
2026-05-01 07:49 24.83741 102.69378 16729 ft 362 kts 227°
2026-05-01 07:49 24.80098 102.65416 18503 ft 374 kts 226°
2026-05-01 07:49 24.78256 102.63428 19291 ft 380 kts 226°
2026-05-01 07:50 24.76352 102.61379 20112 ft 385 kts 226°
2026-05-01 07:50 24.72468 102.57218 21847 ft 393 kts 226°
2026-05-01 07:50 24.70500 102.55111 22674 ft 397 kts 227°
2026-05-01 07:51 24.68503 102.52970 23417 ft 403 kts 227°
2026-05-01 07:51 24.66478 102.50804 24047 ft 409 kts 227°
2026-05-01 07:51 24.64450 102.48636 24647 ft 415 kts 226°
2026-05-01 07:52 24.60254 102.44154 25770 ft 426 kts 226°
2026-05-01 07:52 24.58118 102.41876 26359 ft 430 kts 227°
2026-05-01 07:52 24.55963 102.39575 26924 ft 434 kts 226°
2026-05-01 07:53 24.51579 102.34896 27906 ft 444 kts 226°
2026-05-01 07:53 24.49354 102.32530 28384 ft 448 kts 226°
2026-05-01 07:53 24.47103 102.30136 28888 ft 452 kts 226°
2026-05-01 07:53 24.44833 102.27722 29364 ft 456 kts 226°
2026-05-01 07:54 24.40235 102.22834 30252 ft 463 kts 226°
2026-05-01 07:55 24.33288 102.15460 31468 ft 467 kts 226°
2026-05-01 07:55 24.28567 102.10453 32088 ft 471 kts 226°
2026-05-01 07:56 24.21490 102.02957 33189 ft 470 kts 227°
2026-05-01 07:56 24.16813 101.98014 34112 ft 465 kts 227°
2026-05-01 07:57 24.14492 101.95559 34421 ft 465 kts 227°
2026-05-01 07:57 24.10616 101.91468 34979 ft 465 kts 227°
2026-05-01 07:58 24.05970 101.86561 35726 ft 462 kts 227°
2026-05-01 07:58 24.00603 101.80925 36606 ft 460 kts 225°
2026-05-01 07:59 23.96361 101.77298 37172 ft 464 kts 216°
2026-05-01 07:59 23.90827 101.73677 37842 ft 462 kts 214°
2026-05-01 08:00 23.79815 101.66530 37839 ft 460 kts 214°
2026-05-01 08:01 23.68804 101.59329 37854 ft 462 kts 214°
2026-05-01 08:02 23.60522 101.53920 37830 ft 463 kts 214°
2026-05-01 08:03 23.52208 101.48506 37851 ft 464 kts 215°
2026-05-01 08:03 23.43931 101.43114 37854 ft 465 kts 214°
2026-05-01 08:04 23.32838 101.35909 37861 ft 464 kts 215°
2026-05-01 08:05 23.24536 101.30533 37897 ft 462 kts 215°
2026-05-01 08:06 23.16234 101.25145 37879 ft 463 kts 215°
2026-05-01 08:07 23.05168 101.17993 37887 ft 463 kts 215°
2026-05-01 08:08 22.96906 101.12660 37904 ft 462 kts 214°
2026-05-01 08:09 22.85830 101.05525 37908 ft 463 kts 215°
2026-05-01 08:09 22.80287 101.01959 37902 ft 464 kts 214°
2026-05-01 08:10 22.74618 100.98615 37886 ft 467 kts 202°
2026-05-01 08:10 22.68055 100.98171 37897 ft 487 kts 173°
2026-05-01 08:11 22.61621 101.00706 37895 ft 496 kts 161°
2026-05-01 08:11 22.55275 101.03616 37898 ft 499 kts 161°
2026-05-01 08:12 22.45618 101.07885 37889 ft 500 kts 162°
2026-05-01 08:13 22.35940 101.12071 37887 ft 498 kts 162°
2026-05-01 08:13 22.26292 101.16241 37890 ft 497 kts 162°
2026-05-01 08:14 22.19878 101.19013 37879 ft 497 kts 162°
2026-05-01 08:14 22.13467 101.21783 37880 ft 496 kts 162°
2026-05-01 08:15 22.03861 101.25919 37878 ft 494 kts 161°
2026-05-01 08:16 21.97472 101.28673 37884 ft 494 kts 161°
2026-05-01 08:16 21.91128 101.31404 37883 ft 495 kts 161°
2026-05-01 08:17 21.84730 101.34162 37897 ft 496 kts 161°
2026-05-01 08:17 21.78303 101.36937 37893 ft 497 kts 161°
2026-05-01 08:18 21.71877 101.39704 37890 ft 497 kts 161°
2026-05-01 08:19 21.59028 101.45230 37890 ft 496 kts 161°
2026-05-01 08:19 21.52616 101.47984 37897 ft 496 kts 161°
2026-05-01 08:20 21.46250 101.50716 37899 ft 496 kts 161°
2026-05-01 08:20 21.39837 101.53464 37894 ft 496 kts 160°
2026-05-01 08:21 21.33439 101.56207 37903 ft 495 kts 160°
2026-05-01 08:21 21.27052 101.58943 37901 ft 494 kts 160°
2026-05-01 08:22 21.20659 101.61674 37891 ft 494 kts 160°
2026-05-01 08:22 21.14269 101.64418 37902 ft 494 kts 160°
2026-05-01 08:23 21.07936 101.67158 37903 ft 494 kts 160°
2026-05-01 08:23 21.01558 101.69916 37901 ft 494 kts 161°
2026-05-01 08:24 20.95181 101.72666 37892 ft 494 kts 161°
2026-05-01 08:24 20.88805 101.75413 37887 ft 493 kts 161°
2026-05-01 08:25 20.82435 101.78156 37876 ft 493 kts 161°
2026-05-01 08:25 20.76059 101.80897 37873 ft 493 kts 161°
2026-05-01 08:26 20.69696 101.83632 37870 ft 492 kts 162°
2026-05-01 08:26 20.63352 101.86356 37876 ft 490 kts 162°
2026-05-01 08:27 20.57029 101.89066 37868 ft 490 kts 162°
2026-05-01 08:27 20.50746 101.91755 37853 ft 489 kts 162°
2026-05-01 08:28 20.44388 101.94474 37865 ft 489 kts 162°
2026-05-01 08:28 20.38103 101.97169 37856 ft 491 kts 163°
2026-05-01 08:29 20.31778 101.99873 37861 ft 488 kts 163°
2026-05-01 08:29 20.25473 102.02560 37857 ft 487 kts 163°
2026-05-01 08:30 20.19188 102.05239 37848 ft 485 kts 163°
2026-05-01 08:30 20.12926 102.07914 37824 ft 483 kts 164°
2026-05-01 08:31 20.06694 102.10571 37813 ft 481 kts 164°
2026-05-01 08:31 20.00491 102.13208 37796 ft 479 kts 164°
2026-05-01 08:32 19.94296 102.15702 37798 ft 469 kts 172°
2026-05-01 08:32 19.91111 102.16206 37805 ft 459 kts 183°
2026-05-01 08:32 19.87989 102.16111 37806 ft 452 kts 192°
2026-05-01 08:33 19.81972 102.14531 37797 ft 445 kts 201°
2026-05-01 08:33 19.76039 102.12628 37838 ft 444 kts 201°
2026-05-01 08:34 19.70060 102.10760 37823 ft 450 kts 201°
2026-05-01 08:34 19.64026 102.08909 37863 ft 451 kts 200°
2026-05-01 08:35 19.57997 102.07064 37865 ft 450 kts 200°
2026-05-01 08:35 19.51980 102.05226 37870 ft 450 kts 200°
2026-05-01 08:36 19.45975 102.03394 37864 ft 448 kts 200°
2026-05-01 08:36 19.40008 102.01578 37861 ft 449 kts 200°
2026-05-01 08:37 19.33996 101.99744 37875 ft 449 kts 200°
2026-05-01 08:37 19.27984 101.97913 37863 ft 449 kts 200°
2026-05-01 08:38 19.21968 101.96084 37885 ft 449 kts 200°
2026-05-01 08:38 19.15949 101.94257 37884 ft 450 kts 200°
2026-05-01 08:39 19.09932 101.92429 37894 ft 449 kts 200°
2026-05-01 08:39 19.03911 101.90603 37875 ft 449 kts 200°
2026-05-01 08:40 18.94897 101.87862 37864 ft 449 kts 200°
2026-05-01 08:40 18.88929 101.86057 37866 ft 448 kts 200°
2026-05-01 08:41 18.82944 101.84249 37869 ft 447 kts 200°
2026-05-01 08:41 18.76972 101.82439 37867 ft 447 kts 200°
2026-05-01 08:42 18.70979 101.80629 37856 ft 449 kts 200°
2026-05-01 08:42 18.64960 101.78809 37871 ft 451 kts 200°
2026-05-01 08:43 18.58918 101.76983 37862 ft 452 kts 200°
2026-05-01 08:43 18.52862 101.75160 37850 ft 453 kts 200°
2026-05-01 08:44 18.46806 101.73336 37862 ft 452 kts 200°
2026-05-01 08:44 18.40772 101.71516 37862 ft 450 kts 200°
2026-05-01 08:45 18.35754 101.70009 37847 ft 451 kts 200°
2026-05-01 08:45 18.29701 101.68186 37846 ft 451 kts 200°
2026-05-01 08:46 18.23665 101.66371 37855 ft 450 kts 200°
2026-05-01 08:46 18.17690 101.64581 37847 ft 449 kts 200°
2026-05-01 08:47 18.11678 101.62766 37864 ft 449 kts 200°
2026-05-01 08:47 18.05646 101.60961 37848 ft 451 kts 200°
2026-05-01 08:48 17.99608 101.59155 37862 ft 451 kts 200°
2026-05-01 08:48 17.93576 101.57346 37862 ft 451 kts 200°
2026-05-01 08:49 17.87532 101.55536 37853 ft 452 kts 200°
2026-05-01 08:49 17.81515 101.53738 37861 ft 451 kts 200°
2026-05-01 08:50 17.75463 101.51927 37871 ft 452 kts 200°
2026-05-01 08:50 17.69408 101.50116 37857 ft 453 kts 200°
2026-05-01 08:51 17.63347 101.48299 37864 ft 453 kts 200°
2026-05-01 08:51 17.57275 101.46478 37893 ft 454 kts 200°
2026-05-01 08:52 17.51193 101.44657 37859 ft 455 kts 200°
2026-05-01 08:52 17.45115 101.42839 37895 ft 454 kts 200°
2026-05-01 08:53 17.39038 101.41020 37874 ft 455 kts 200°
2026-05-01 08:53 17.32927 101.39193 37876 ft 457 kts 200°
2026-05-01 08:54 17.26854 101.37379 37876 ft 457 kts 200°
2026-05-01 08:54 17.20732 101.35541 37872 ft 458 kts 200°
2026-05-01 08:55 17.14611 101.33703 37869 ft 457 kts 200°
2026-05-01 08:55 17.08494 101.31875 37860 ft 457 kts 199°
2026-05-01 08:56 17.02368 101.30050 37883 ft 458 kts 199°
2026-05-01 08:56 16.96238 101.28223 37852 ft 458 kts 199°
2026-05-01 08:57 16.90099 101.26393 37869 ft 458 kts 199°
2026-05-01 08:57 16.83955 101.24554 37827 ft 460 kts 200°
2026-05-01 08:58 16.77819 101.22736 37820 ft 458 kts 199°
2026-05-01 08:58 16.71717 101.20926 37820 ft 459 kts 199°
2026-05-01 08:59 16.65602 101.18987 37828 ft 459 kts 202°
2026-05-01 08:59 16.59582 101.16696 37837 ft 461 kts 203°
2026-05-01 09:00 16.53558 101.14373 37831 ft 462 kts 203°
2026-05-01 09:00 16.47522 101.12063 37841 ft 462 kts 203°
2026-05-01 09:01 16.41475 101.09763 37832 ft 462 kts 203°
2026-05-01 09:01 16.35421 101.07465 37824 ft 464 kts 203°
2026-05-01 09:02 16.29374 101.05171 37835 ft 466 kts 203°
2026-05-01 09:02 16.23279 101.02859 37836 ft 467 kts 203°
2026-05-01 09:03 16.17167 101.00542 37820 ft 468 kts 203°
2026-05-01 09:03 16.11050 100.98228 37815 ft 467 kts 203°
2026-05-01 09:04 16.04940 100.95915 37804 ft 467 kts 204°
2026-05-01 09:04 15.98842 100.93610 37805 ft 466 kts 203°
2026-05-01 09:05 15.92728 100.91295 37816 ft 469 kts 204°
2026-05-01 09:05 15.86589 100.88971 37819 ft 469 kts 203°
2026-05-01 09:06 15.80428 100.86652 37820 ft 472 kts 203°
2026-05-01 09:06 15.74267 100.84327 37806 ft 470 kts 203°
2026-05-01 09:07 15.68119 100.82010 37809 ft 469 kts 204°
2026-05-01 09:07 15.61987 100.79696 37814 ft 468 kts 204°
2026-05-01 09:08 15.55897 100.77403 37314 ft 473 kts 204°
2026-05-01 09:08 15.52784 100.76230 36607 ft 474 kts 203°
2026-05-01 09:08 15.49684 100.75063 35856 ft 474 kts 203°
2026-05-01 09:09 15.46582 100.73895 35041 ft 476 kts 203°
2026-05-01 09:09 15.43453 100.72718 34129 ft 479 kts 202°
2026-05-01 09:09 15.40302 100.71534 33098 ft 483 kts 202°
2026-05-01 09:09 15.37128 100.70341 32053 ft 486 kts 202°
2026-05-01 09:10 15.33942 100.69144 31200 ft 486 kts 202°
2026-05-01 09:10 15.30763 100.67995 30492 ft 484 kts 199°
2026-05-01 09:10 15.27500 100.67147 29789 ft 483 kts 193°
2026-05-01 09:10 15.24190 100.66588 28973 ft 480 kts 189°
2026-05-01 09:11 15.20876 100.66357 28194 ft 476 kts 185°
2026-05-01 09:11 15.17583 100.66215 27448 ft 470 kts 185°
2026-05-01 09:11 15.14321 100.66073 26714 ft 466 kts 185°
2026-05-01 09:11 15.11142 100.65928 26011 ft 461 kts 185°
2026-05-01 09:12 15.07958 100.65774 25298 ft 457 kts 185°
2026-05-01 09:12 15.04799 100.65615 24588 ft 453 kts 185°
2026-05-01 09:12 15.01655 100.65451 23855 ft 450 kts 185°
2026-05-01 09:12 14.98538 100.65287 23108 ft 447 kts 185°
2026-05-01 09:13 14.95442 100.65126 22324 ft 444 kts 185°
2026-05-01 09:13 14.92371 100.64966 21612 ft 438 kts 185°
2026-05-01 09:13 14.89340 100.64810 20912 ft 433 kts 185°
2026-05-01 09:13 14.86349 100.64655 20242 ft 428 kts 185°
2026-05-01 09:14 14.83385 100.64500 19572 ft 423 kts 185°
2026-05-01 09:14 14.80454 100.64347 18904 ft 420 kts 185°
2026-05-01 09:14 14.77551 100.64196 18245 ft 416 kts 185°
2026-05-01 09:14 14.74705 100.64049 18022 ft 401 kts 185°
2026-05-01 09:15 14.71968 100.63966 17801 ft 387 kts 179°
2026-05-01 09:15 14.69397 100.64512 17467 ft 374 kts 163°
2026-05-01 09:15 14.66936 100.65370 17169 ft 372 kts 163°
2026-05-01 09:15 14.64483 100.66171 16866 ft 367 kts 165°
2026-05-01 09:16 14.62080 100.66923 16568 ft 364 kts 165°
2026-05-01 09:16 14.59661 100.67668 16269 ft 362 kts 165°
2026-05-01 09:16 14.57251 100.68408 15973 ft 360 kts 165°
2026-05-01 09:17 14.52466 100.69878 15383 ft 357 kts 165°
2026-05-01 09:17 14.50088 100.70609 15087 ft 357 kts 165°
2026-05-01 09:17 14.45300 100.71790 14481 ft 350 kts 178°
2026-05-01 09:18 14.42879 100.71730 14194 ft 347 kts 187°
2026-05-01 09:18 14.38218 100.70607 13617 ft 342 kts 195°
2026-05-01 09:19 14.33636 100.69362 13015 ft 339 kts 195°
2026-05-01 09:19 14.31355 100.68753 12709 ft 337 kts 195°
2026-05-01 09:19 14.29085 100.68153 12429 ft 336 kts 195°
2026-05-01 09:20 14.24572 100.66962 11878 ft 333 kts 195°
2026-05-01 09:20 14.20117 100.65791 11337 ft 331 kts 195°
2026-05-01 09:21 14.15687 100.64624 10902 ft 327 kts 195°
2026-05-01 09:21 14.13508 100.64051 10652 ft 319 kts 195°
2026-05-01 09:21 14.09285 100.62939 10118 ft 307 kts 194°
2026-05-01 09:22 14.05241 100.61876 9813 ft 293 kts 194°
2026-05-01 09:22 14.01544 100.61344 9221 ft 254 kts 165°
2026-05-01 09:23 13.99976 100.62177 8984 ft 259 kts 142°
2026-05-01 09:23 13.97999 100.65162 8472 ft 256 kts 109°
2026-05-01 09:24 13.97130 100.68718 8012 ft 255 kts 98°
2026-05-01 09:24 13.97304 100.70522 7780 ft 258 kts 70°
2026-05-01 09:24 13.99888 100.72917 7330 ft 257 kts 15°
2026-05-01 09:25 14.02927 100.74540 6681 ft 253 kts 62°
2026-05-01 09:25 14.03078 100.77998 6091 ft 245 kts 103°
2026-05-01 09:26 14.02710 100.79706 5815 ft 244 kts 104°
2026-05-01 09:26 14.01573 100.82918 5109 ft 239 kts 137°
2026-05-01 09:26 14.00168 100.83764 4817 ft 235 kts 166°
2026-05-01 09:27 13.96981 100.83501 4301 ft 229 kts 194°
2026-05-01 09:27 13.95422 100.83073 4095 ft 235 kts 194°
2026-05-01 09:27 13.93840 100.82641 3881 ft 235 kts 195°
2026-05-01 09:28 13.92266 100.82205 3656 ft 234 kts 195°
2026-05-01 09:28 13.90719 100.81784 3471 ft 232 kts 194°
2026-05-01 09:28 13.89173 100.81371 3302 ft 227 kts 194°
2026-05-01 09:28 13.87654 100.80966 3074 ft 224 kts 194°
2026-05-01 09:29 13.84694 100.80189 2725 ft 210 kts 194°
2026-05-01 09:29 13.83338 100.79833 2518 ft 200 kts 194°
2026-05-01 09:30 13.80787 100.79158 2163 ft 180 kts 194°
2026-05-01 09:30 13.79600 100.78843 1941 ft 171 kts 195°
2026-05-01 09:30 13.77398 100.78267 1630 ft 161 kts 195°
2026-05-01 09:31 13.76314 100.77981 1397 ft 160 kts 193°
2026-05-01 09:31 13.75285 100.77708 1189 ft 146 kts 193°
2026-05-01 09:31 13.73502 100.77244 897 ft 128 kts 196°
2026-05-01 09:32 13.72923 100.77090 822 ft 133 kts 194°
2026-05-01 09:32 13.70835 100.76543 360 ft 125 kts 199°
2026-05-01 09:32 13.69980 100.76316 236 ft 129 kts 197°
2026-05-01 09:33 13.69405 100.76165 102 ft 129 kts 197°
2026-05-01 09:33 13.68594 100.75953 22 ft 107 kts 194°
2026-05-01 09:33 13.67655 100.75696 15 ft 31 kts 203°
2026-05-01 09:34 13.67493 100.75583 17 ft 21 kts 223°
2026-05-01 09:34 13.67449 100.75515 17 ft 13 kts 261°
2026-05-01 09:34 13.67582 100.75496 17 ft 11 kts 14°
2026-05-01 09:35 13.67658 100.75516 17 ft 11 kts 14°
2026-05-01 09:35 13.67807 100.75555 19 ft 11 kts 14°
2026-05-01 09:35 13.67882 100.75575 17 ft 11 kts 14°
2026-05-01 09:36 13.67957 100.75595 17 ft 11 kts 14°
2026-05-01 09:36 13.68031 100.75614 17 ft 11 kts 14°
2026-05-01 09:36 13.68107 100.75633 17 ft 11 kts 14°
2026-05-01 09:36 13.68181 100.75653 17 ft 11 kts 14°
2026-05-01 09:37 13.68256 100.75672 18 ft 11 kts 14°
2026-05-01 09:37 13.68296 100.75682 18 ft 0 kts 12°
2026-05-01 09:38 13.68311 100.75686 18 ft 3 kts 13°
2026-05-01 09:38 13.68335 100.75692 18 ft 5 kts 14°
2026-05-01 09:38 13.68377 100.75703 18 ft 8 kts 14°
2026-05-01 09:39 13.68462 100.75627 18 ft 12 kts 285°
2026-05-01 09:39 13.68479 100.75559 18 ft 11 kts 284°
2026-05-01 09:39 13.68500 100.75476 17 ft 13 kts 284°
2026-05-01 09:40 13.68525 100.75378 17 ft 15 kts 284°
2026-05-01 09:40 13.68559 100.75240 18 ft 2 kts 285°
2026-05-01 09:40 13.68565 100.75217 18 ft 5 kts 285°
2026-05-01 09:41 13.68576 100.75176 19 ft 7 kts 285°
2026-05-01 09:41 13.68669 100.75154 18 ft 4 kts 14°
2026-05-01 09:41 13.68695 100.75169 19 ft 2 kts 64°
2026-05-01 09:42 13.68688 100.75188 18 ft 4 kts 111°
2026-05-01 09:42 13.68680 100.75217 18 ft 0 kts 103°
2026-05-01 09:42 13.68677 100.75233 18 ft 0 kts 104°